693  
ASUS44 KLZK 200705  
RWRLZK  
 
WEATHER ROUNDUP FOR ARKANSAS  
NATIONAL WEATHER SERVICE LITTLE ROCK AR  
200 AM CDT SAT OCT 20 2018  
 
NOTE: "FAIR" INDICATES FEW OR NO CLOUDS BELOW 12,000 FEET WITH NO  
SIGNIFICANT WEATHER AND/OR S TO VISIBILITY
.  
 
ARZ001-003-010-029-200800-  
NORTHWEST ARKANSAS  
 
CITY SKY/WX TMP DP RH WIND PRES REMARKS
 
FAYETTEVILLE CLOUDY 52 50 93 CALM 30.17R  
FORT SMITH CLOUDY 53 52 96 W3 30.16S  
HARRISON MOCLDY 52 51 97 NW6 30.14S  
BENTONVILLE FOG 52 51 97 W7 30.19S VSB 3/4  
ROGERS FOG 52 51 97 NW8 30.18R VSB 3/4  
SILOAM SPGS FOG 52 51 97 W6 30.19R VSB 3/4  
HIGHFILL FOG 53 50 89 W6 30.18R VSB 1  

 
 
ARZ004-005-016-200800-  
NORTH CENTRAL ARKANSAS  
 
CITY SKY/WX TMP DP RH WIND PRES REMARKS
 
BATESVILLE CLOUDY 54 53 97 CALM 30.12F  
FLIPPIN CLOUDY 53 52 96 CALM 30.14S  
MTN HOME CLOUDY 53 53 100 CALM 30.12S  

 
 
ARZ040-041-200800-  
WEST CENTRAL ARKANSAS  
 
CITY SKY/WX TMP DP RH WIND PRES REMARKS
 
MENA CLOUDY N/A N/A N/A CALM 30.16R  

 
 
ARZ009-017-025-026-028-200800-  
NORTHEAST ARKANSAS  
 
CITY SKY/WX TMP DP RH WIND PRES REMARKS
 
CORNING FAIR 52 54 100 SW8 30.11S  
JONESBORO LGT RAIN 54 54 100 W5 30.11F  
NEWPORT LGT RAIN 54 53 97 W5 30.12F  
WALNUT RIDGE CLOUDY 53 52 96 W6 30.12S  
BLYTHEVILLE LGT RAIN 54 52 93 CALM 30.10F FOG  

 
 
ARZ022-023-033-042-044-200800-  
CENTRAL ARKANSAS  
 
CITY SKY/WX TMP DP RH WIND PRES REMARKS
 
LITTLE ROCK LGT RAIN 55 55 100 NW9 30.13R FOG  
N LITTLE ROCK N/A 53 53 100 NW3 30.16S  
JACKSONVILLE LGT RAIN 55 55 100 NW6 30.12S  
CONWAY CLOUDY 55 54 94 CALM 30.13S FOG  
SEARCY LGT RAIN 55 55 100 VRB3 30.13S  
HOT SPRINGS LGT RAIN 58 58 100 NW5 30.13S FOG  
RUSSELLVILLE CLOUDY 53 53 100 W6 30.14S  
CLINTON CLOUDY 54 54 100 CALM 30.13S  

 
 
ARZ036-200800-  
EAST ARKANSAS  
 
CITY SKY/WX TMP DP RH WIND PRES REMARKS
 
WEST MEMPHIS LGT RAIN 57 57 100 CALM 30.10F FOG  

 
 
ARZ050-053-066-070-073-200800-  
SOUTHWEST ARKANSAS  
 
CITY SKY/WX TMP DP RH WIND PRES REMARKS
 
ARKADELPHIA LGT RAIN 58 58 100 CALM 30.13F  
CAMDEN DRIZZLE 61 57 88 NW6 30.11R  
TEXARKANA CLOUDY 57 57 100 N9 30.13F FOG  
EL DORADO MOCLDY 61 60 97 CALM 30.10F  
DE QUEEN CLOUDY 57 57 100 W3 30.14R FOG  

 
 
ARZ056-057-069-200800-  
SOUTHEAST ARKANSAS  
 
CITY SKY/WX TMP DP RH WIND PRES REMARKS
 
PINE BLUFF LGT RAIN 59 57 93 N7 30.11S FOG  
STUTTGART HVY RAIN 57 57 100 NW5 30.13R FOG  
MONTICELLO CLOUDY 62 61 96 CALM 30.09F  
 

 
 
 
 
CLICK HERE TO GO TO PREVIOUS BULLETINS.

The Nexlab AR Page Main Text Page